Retour au catalogue

COSMOS 1191 DEB

ActifHEO
NORAD 12817·DEBRIS·🇷🇺 Russia

Lancé Jul 2, 1980 depuis Plesetsk Cosmodrome

Loading…

Prochains Passages (prochaines 24 heures)

TLE

VieillissantSource: Space-Track

Époque: Sep 1, 2026, 14:55 UTC

1 12817U 80057E   26244.62210607 -.00000662  00000-0  00000-0 0  9996
2 12817  63.8779 356.5709 7185233  33.3791 355.8572  1.99851641250737

Suivez COSMOS 1191 DEB en temps réel avec AllMySat

Download on the App Store